Time,TemperatureF,DewpointF,PressureIn,WindDirection,WindDirectionDegrees,WindSpeedMPH,WindSpeedGustMPH,Humidity,HourlyPrecipIn,Conditions,Clouds,dailyrainin,SoftwareType,DateUTC
2013-04-02 00:02:00,45.0,26.0,-100.00,ESE,110,16.0,21.0,46,0.00,,,-99.99,,2013-04-02 00:02:00,
2013-04-02 00:12:00,45.0,26.0,-100.00,ESE,110,17.0,22.0,47,0.00,,,-99.99,,2013-04-02 00:12:00,
2013-04-02 00:22:00,44.0,27.0,-100.00,ESE,110,15.0,19.0,51,0.00,,,-99.99,,2013-04-02 00:22:00,
2013-04-02 00:33:00,43.0,27.0,-100.00,ESE,110,17.0,20.0,54,0.00,,,-99.99,,2013-04-02 00:33:00,
2013-04-02 00:42:00,42.0,27.0,-100.00,ESE,110,18.0,21.0,56,0.00,,,-99.99,,2013-04-02 00:42:00,
2013-04-02 00:52:00,40.0,28.0,-100.00,ESE,110,18.0,23.0,61,0.00,,,-99.99,,2013-04-02 00:52:00,
2013-04-02 01:02:00,39.0,28.0,-100.00,ESE,110,18.0,23.0,64,0.00,,,-99.99,,2013-04-02 01:02:00,
2013-04-02 01:12:00,38.0,28.0,-100.00,ESE,110,18.0,24.0,66,0.00,,,-99.99,,2013-04-02 01:12:00,
2013-04-02 01:22:00,38.0,28.0,-100.00,SE,127,17.0,22.0,68,0.00,,,-99.99,,2013-04-02 01:22:00,
2013-04-02 01:32:00,38.0,28.0,-100.00,SE,137,16.0,21.0,69,0.00,,,-99.99,,2013-04-02 01:32:00,
2013-04-02 01:42:00,37.0,29.0,-100.00,SE,134,15.0,21.0,71,0.00,,,-99.99,,2013-04-02 01:42:00,
2013-04-02 01:52:00,37.0,29.0,-100.00,SE,131,12.0,15.0,72,0.00,,,-99.99,,2013-04-02 01:52:00,
2013-04-02 02:02:00,37.0,29.0,-100.00,SE,136,11.0,14.0,74,0.00,,,-99.99,,2013-04-02 02:02:00,
2013-04-02 02:12:00,36.0,29.0,-100.00,SE,133,11.0,16.0,76,0.00,,,-99.99,,2013-04-02 02:12:00,
2013-04-02 02:22:00,36.0,29.0,-100.00,SE,128,11.0,14.0,77,0.00,,,-99.99,,2013-04-02 02:22:00,
2013-04-02 02:32:00,36.0,29.0,-100.00,SE,126,12.0,17.0,78,0.00,,,-99.99,,2013-04-02 02:32:00,
2013-04-02 02:42:00,36.0,30.0,-100.00,SE,124,15.0,19.0,78,0.00,,,-99.99,,2013-04-02 02:42:00,
2013-04-02 02:52:00,36.0,30.0,-100.00,SE,124,14.0,19.0,79,0.00,,,-99.99,,2013-04-02 02:52:00,
2013-04-02 03:02:00,35.0,30.0,-100.00,ESE,123,15.0,19.0,80,0.00,,,-99.99,,2013-04-02 03:02:00,
2013-04-02 03:12:00,36.0,30.0,-100.00,SE,126,15.0,19.0,80,0.00,,,-99.99,,2013-04-02 03:12:00,
2013-04-02 03:22:00,35.0,30.0,-100.00,SE,127,16.0,20.0,82,0.00,,,-99.99,,2013-04-02 03:22:00,
2013-04-02 03:33:00,35.0,30.0,-100.00,SE,128,15.0,19.0,82,0.00,,,-99.99,,2013-04-02 03:33:00,
2013-04-02 03:43:00,35.0,30.0,-100.00,SE,133,14.0,19.0,81,0.00,,,-99.99,,2013-04-02 03:43:00,
2013-04-02 03:52:00,35.0,30.0,-100.00,SE,136,17.0,21.0,81,0.00,,,-99.99,,2013-04-02 03:52:00,
2013-04-02 04:03:00,35.0,30.0,-100.00,SE,143,17.0,21.0,81,0.00,,,-99.99,,2013-04-02 04:03:00,
2013-04-02 04:13:00,35.0,30.0,-100.00,SE,143,17.0,22.0,82,0.00,,,-99.99,,2013-04-02 04:13:00,
2013-04-02 04:22:00,34.0,30.0,-100.00,SE,145,19.0,24.0,83,0.00,,,-99.99,,2013-04-02 04:22:00,
2013-04-02 04:32:00,33.0,29.0,-100.00,SE,144,18.0,24.0,82,0.00,,,-99.99,,2013-04-02 04:32:00,
2013-04-02 04:42:00,33.0,28.0,-100.00,SE,145,16.0,23.0,81,0.00,,,-99.99,,2013-04-02 04:42:00,
2013-04-02 04:52:00,33.0,28.0,-100.00,SE,145,17.0,21.0,82,0.00,,,-99.99,,2013-04-02 04:52:00,
2013-04-02 05:02:00,33.0,28.0,-100.00,SSE,151,17.0,22.0,82,0.00,,,-99.99,,2013-04-02 05:02:00,
2013-04-02 05:12:00,33.0,28.0,-100.00,SSE,150,16.0,21.0,82,0.00,,,-99.99,,2013-04-02 05:12:00,
2013-04-02 05:22:00,33.0,28.0,-100.00,SSE,148,12.0,16.0,83,0.00,,,-99.99,,2013-04-02 05:22:00,
2013-04-02 05:32:00,32.0,28.0,-100.00,SSE,151,12.0,16.0,83,0.00,,,-99.99,,2013-04-02 05:32:00,
2013-04-02 05:42:00,32.0,28.0,-100.00,SSE,152,11.0,15.0,84,0.00,,,-99.99,,2013-04-02 05:42:00,
2013-04-02 05:52:00,32.0,28.0,-100.00,SSE,152,11.0,16.0,86,0.00,,,-99.99,,2013-04-02 05:52:00,
2013-04-02 06:02:00,32.0,28.0,-100.00,SSE,152,9.0,12.0,87,0.00,,,-99.99,,2013-04-02 06:02:00,
2013-04-02 06:12:00,32.0,28.0,-100.00,SSE,150,8.0,11.0,87,0.00,,,-99.99,,2013-04-02 06:12:00,
2013-04-02 06:22:00,31.0,28.0,-100.00,SE,136,8.0,11.0,88,0.00,,,-99.99,,2013-04-02 06:22:00,
2013-04-02 06:32:00,31.0,29.0,-100.00,SSE,152,7.0,11.0,91,0.00,,,-99.99,,2013-04-02 06:32:00,
2013-04-02 06:42:00,31.0,29.0,-100.00,SE,145,6.0,9.0,91,0.00,,,-99.99,,2013-04-02 06:42:00,
2013-04-02 06:52:00,31.0,29.0,-100.00,SE,137,9.0,12.0,91,0.00,,,-99.99,,2013-04-02 06:52:00,
2013-04-02 07:02:00,31.0,29.0,-100.00,SE,133,7.0,9.0,93,0.00,,,-99.99,,2013-04-02 07:02:00,
2013-04-02 07:12:00,31.0,29.0,-100.00,SE,128,6.0,9.0,94,0.00,,,-99.99,,2013-04-02 07:12:00,
2013-04-02 07:22:00,31.0,29.0,-100.00,ESE,113,5.0,9.0,91,0.00,,,-99.99,,2013-04-02 07:22:00,
2013-04-02 07:32:00,31.0,28.0,-100.00,ESE,117,4.0,7.0,90,0.00,,,-99.99,,2013-04-02 07:32:00,
2013-04-02 07:42:00,31.0,28.0,-100.00,SE,134,4.0,6.0,89,0.00,,,-99.99,,2013-04-02 07:42:00,
2013-04-02 07:52:00,31.0,28.0,-100.00,SE,128,4.0,5.0,88,0.00,,,-99.99,,2013-04-02 07:52:00,
2013-04-02 08:02:00,31.0,28.0,-100.00,SE,126,5.0,7.0,88,0.00,,,-99.99,,2013-04-02 08:02:00,
2013-04-02 08:13:00,31.0,28.0,-100.00,SE,124,6.0,7.0,89,0.00,,,-99.99,,2013-04-02 08:13:00,
2013-04-02 08:22:00,31.0,28.0,-100.00,SE,130,6.0,8.0,90,0.00,,,-99.99,,2013-04-02 08:22:00,
2013-04-02 08:32:00,31.0,28.0,-100.00,SE,137,5.0,6.0,90,0.00,,,-99.99,,2013-04-02 08:32:00,
2013-04-02 08:42:00,30.0,28.0,-100.00,SE,128,6.0,9.0,92,0.00,,,-99.99,,2013-04-02 08:42:00,
2013-04-02 08:52:00,30.0,28.0,-100.00,SE,127,7.0,9.0,93,0.00,,,-99.99,,2013-04-02 08:52:00,
2013-04-02 09:02:00,29.0,28.0,-100.00,ESE,121,6.0,9.0,94,0.00,,,-99.99,,2013-04-02 09:02:00,
2013-04-02 09:12:00,29.0,27.0,-100.00,ESE,116,6.0,10.0,95,0.00,,,-99.99,,2013-04-02 09:12:00,
2013-04-02 09:22:00,29.0,28.0,-100.00,SSE,152,6.0,9.0,96,0.00,,,-99.99,,2013-04-02 09:22:00,
2013-04-02 09:32:00,29.0,28.0,-100.00,SSE,161,7.0,10.0,97,0.00,,,-99.99,,2013-04-02 09:32:00,
2013-04-02 09:43:00,29.0,28.0,-100.00,SSE,155,7.0,9.0,97,0.00,,,-99.99,,2013-04-02 09:43:00,
2013-04-02 09:52:00,29.0,28.0,-100.00,SSE,160,6.0,7.0,97,0.00,,,-99.99,,2013-04-02 09:52:00,
2013-04-02 10:03:00,29.0,28.0,-100.00,South,169,6.0,7.0,97,0.00,,,-99.99,,2013-04-02 10:03:00,
2013-04-02 10:13:00,29.0,29.0,-100.00,South,169,4.0,6.0,97,0.00,,,-99.99,,2013-04-02 10:13:00,
2013-04-02 10:23:00,29.0,29.0,-100.00,SSE,164,1.0,4.0,97,0.00,,,-99.99,,2013-04-02 10:23:00,
2013-04-02 10:33:00,29.0,29.0,-100.00,South,172,2.0,5.0,97,0.00,,,-99.99,,2013-04-02 10:33:00,
2013-04-02 10:42:00,29.0,28.0,-100.00,SE,134,9.0,13.0,97,0.00,,,-99.99,,2013-04-02 10:42:00,
2013-04-02 10:52:00,29.0,28.0,-100.00,SE,141,11.0,13.0,99,0.00,,,-99.99,,2013-04-02 10:52:00,
2013-04-02 11:02:00,29.0,28.0,-100.00,SSE,151,9.0,11.0,99,0.00,,,-99.99,,2013-04-02 11:02:00,
2013-04-02 11:12:00,29.0,28.0,-100.00,SSE,158,9.0,11.0,99,0.00,,,-99.99,,2013-04-02 11:12:00,
2013-04-02 11:22:00,29.0,28.0,-100.00,South,169,6.0,9.0,99,0.00,,,-99.99,,2013-04-02 11:22:00,
2013-04-02 11:32:00,29.0,28.0,-100.00,South,186,6.0,7.0,98,0.00,,,-99.99,,2013-04-02 11:32:00,
2013-04-02 11:42:00,29.0,29.0,-100.00,SSW,200,4.0,7.0,98,0.00,,,-99.99,,2013-04-02 11:42:00,
2013-04-02 11:52:00,29.0,29.0,-100.00,SSE,148,3.0,4.0,98,0.00,,,-99.99,,2013-04-02 11:52:00,
2013-04-02 12:02:00,30.0,29.0,-100.00,SSE,151,3.0,5.0,97,0.00,,,-99.99,,2013-04-02 12:02:00,
2013-04-02 12:12:00,30.0,29.0,-100.00,SSE,158,3.0,5.0,97,0.00,,,-99.99,,2013-04-02 12:12:00,
2013-04-02 12:22:00,30.0,29.0,-100.00,ESE,119,2.0,6.0,96,0.00,,,-99.99,,2013-04-02 12:22:00,
2013-04-02 12:32:00,29.0,28.0,-100.00,East,79,2.0,3.0,96,0.00,,,-99.99,,2013-04-02 12:32:00,
2013-04-02 12:42:00,29.0,28.0,-100.00,ENE,72,2.0,4.0,96,0.00,,,-99.99,,2013-04-02 12:42:00,
2013-04-02 12:52:00,29.0,28.0,-100.00,ENE,69,2.0,4.0,96,0.00,,,-99.99,,2013-04-02 12:52:00,
2013-04-02 13:02:00,29.0,28.0,-100.00,NE,56,2.0,4.0,96,0.00,,,-99.99,,2013-04-02 13:02:00,
2013-04-02 13:12:00,29.0,28.0,-100.00,ENE,76,2.0,3.0,95,0.00,,,-99.99,,2013-04-02 13:12:00,
2013-04-02 13:22:00,29.0,28.0,-100.00,ENE,72,2.0,4.0,95,0.00,,,-99.99,,2013-04-02 13:22:00,
2013-04-02 13:33:00,30.0,28.0,-100.00,ENE,75,3.0,4.0,95,0.00,,,-99.99,,2013-04-02 13:33:00,
2013-04-02 13:42:00,29.0,28.0,-100.00,ENE,64,3.0,4.0,94,0.00,,,-99.99,,2013-04-02 13:42:00,
2013-04-02 13:52:00,30.0,28.0,-100.00,ENE,69,2.0,3.0,94,0.00,,,-99.99,,2013-04-02 13:52:00,
2013-04-02 14:02:00,30.0,28.0,-100.00,ENE,71,1.0,2.0,94,0.00,,,-99.99,,2013-04-02 14:02:00,
2013-04-02 14:12:00,30.0,29.0,-100.00,SE,130,1.0,3.0,94,0.00,,,-99.99,,2013-04-02 14:12:00,
2013-04-02 14:23:00,31.0,29.0,-100.00,SSW,196,1.0,2.0,92,0.00,,,-99.99,,2013-04-02 14:23:00,
2013-04-02 14:32:00,31.0,29.0,-100.00,WSW,237,1.0,2.0,91,0.00,,,-99.99,,2013-04-02 14:32:00,
2013-04-02 14:42:00,32.0,29.0,-100.00,WSW,250,1.0,3.0,91,0.00,,,-99.99,,2013-04-02 14:42:00,
2013-04-02 14:52:00,31.0,29.0,-100.00,WNW,288,1.0,3.0,90,0.00,,,-99.99,,2013-04-02 14:52:00,
2013-04-02 15:02:00,32.0,29.0,-100.00,NNW,342,1.0,2.0,90,0.00,,,-99.99,,2013-04-02 15:02:00,
2013-04-02 15:11:00,32.0,29.0,-100.00,North,349,1.0,2.0,90,0.00,,,-99.99,,2013-04-02 15:11:00,
2013-04-02 15:22:00,32.0,30.0,-100.00,NNW,337,1.0,2.0,89,0.00,,,-99.99,,2013-04-02 15:22:00,
2013-04-02 15:33:00,33.0,30.0,-100.00,NW,309,1.0,3.0,88,0.00,,,-99.99,,2013-04-02 15:33:00,
2013-04-02 15:42:00,33.0,29.0,-100.00,NNE,18,1.0,3.0,85,0.00,,,-99.99,,2013-04-02 15:42:00,
2013-04-02 15:54:00,34.0,27.0,-100.00,ENE,73,6.0,9.0,76,0.00,,,-99.99,,2013-04-02 15:54:00,
2013-04-02 16:03:00,34.0,27.0,-100.00,ENE,66,7.0,9.0,74,0.00,,,-99.99,,2013-04-02 16:03:00,
2013-04-02 16:13:00,35.0,27.0,-100.00,ENE,69,6.0,9.0,74,0.00,,,-99.99,,2013-04-02 16:13:00,
2013-04-02 16:24:00,35.0,27.0,-100.00,East,100,4.0,9.0,71,0.00,,,-99.99,,2013-04-02 16:24:00,
2013-04-02 16:35:00,35.0,26.0,-100.00,ESE,103,4.0,9.0,70,0.00,,,-99.99,,2013-04-02 16:35:00,
2013-04-02 16:43:00,35.0,27.0,-100.00,ESE,110,5.0,9.0,70,0.00,,,-99.99,,2013-04-02 16:43:00,
2013-04-02 16:52:00,35.0,25.0,-100.00,East,97,7.0,13.0,66,0.00,,,-99.99,,2013-04-02 16:52:00,
2013-04-02 17:05:00,35.0,26.0,-100.00,East,97,6.0,12.0,68,0.00,,,-99.99,,2013-04-02 17:05:00,
2013-04-02 17:13:00,35.0,26.0,-100.00,East,97,7.0,12.0,68,0.00,,,-99.99,,2013-04-02 17:13:00,
2013-04-02 17:24:00,35.0,26.0,-100.00,East,93,7.0,13.0,69,0.00,,,-99.99,,2013-04-02 17:24:00,
2013-04-02 17:34:00,35.0,26.0,-100.00,ESE,107,8.0,14.0,68,0.00,,,-99.99,,2013-04-02 17:34:00,
2013-04-02 17:43:00,35.0,25.0,-100.00,East,92,7.0,12.0,67,0.00,,,-99.99,,2013-04-02 17:43:00,
2013-04-02 17:53:00,36.0,25.0,-100.00,East,95,6.0,11.0,64,0.00,,,-99.99,,2013-04-02 17:53:00,
2013-04-02 18:03:00,36.0,25.0,-100.00,East,96,7.0,11.0,63,0.00,,,-99.99,,2013-04-02 18:03:00,
2013-04-02 18:12:00,36.0,25.0,-100.00,East,96,7.0,11.0,63,0.00,,,-99.99,,2013-04-02 18:12:00,
2013-04-02 18:34:00,37.0,25.0,-100.00,ESE,102,7.0,14.0,61,0.00,,,-99.99,,2013-04-02 18:34:00,
2013-04-02 18:43:00,38.0,25.0,-100.00,East,97,7.0,14.0,60,0.00,,,-99.99,,2013-04-02 18:43:00,
2013-04-02 18:53:00,37.0,26.0,-100.00,East,97,7.0,16.0,64,0.00,,,-99.99,,2013-04-02 18:53:00,
2013-04-02 19:03:00,38.0,28.0,-100.00,East,97,7.0,12.0,68,0.00,,,-99.99,,2013-04-02 19:03:00,
2013-04-02 19:13:00,38.0,27.0,-100.00,East,97,7.0,14.0,65,0.00,,,-99.99,,2013-04-02 19:13:00,
2013-04-02 19:22:00,38.0,27.0,-100.00,East,97,11.0,22.0,66,0.00,,,-99.99,,2013-04-02 19:22:00,
2013-04-02 19:33:00,37.0,28.0,-100.00,East,97,13.0,22.0,70,0.00,,,-99.99,,2013-04-02 19:33:00,
2013-04-02 19:45:00,36.0,31.0,-100.00,East,97,12.0,19.0,81,0.00,,,-99.99,,2013-04-02 19:45:00,
2013-04-02 19:53:00,33.0,31.0,-100.00,East,97,17.0,22.0,93,0.01,,,-99.99,,2013-04-02 19:53:00,
2013-04-02 20:03:00,32.0,31.0,-100.00,East,97,14.0,17.0,96,0.06,,,-99.99,,2013-04-02 20:03:00,
2013-04-02 20:13:00,31.0,31.0,-100.00,East,97,12.0,16.0,97,0.07,,,-99.99,,2013-04-02 20:13:00,
2013-04-02 20:22:00,32.0,31.0,-100.00,ESE,117,6.0,8.0,98,0.01,,,-99.99,,2013-04-02 20:22:00,
2013-04-02 20:33:00,33.0,33.0,-100.00,ESE,110,4.0,7.0,99,0.00,,,-99.99,,2013-04-02 20:33:00,
2013-04-02 20:43:00,34.0,33.0,-100.00,East,90,4.0,9.0,98,0.00,,,-99.99,,2013-04-02 20:43:00,
2013-04-02 20:53:00,35.0,34.0,-100.00,East,88,5.0,8.0,96,0.00,,,-99.99,,2013-04-02 20:53:00,
2013-04-02 21:04:00,35.0,33.0,-100.00,East,88,6.0,10.0,92,0.00,,,-99.99,,2013-04-02 21:04:00,
2013-04-02 21:13:00,35.0,33.0,-100.00,East,89,6.0,11.0,90,0.00,,,-99.99,,2013-04-02 21:13:00,
2013-04-02 21:23:00,36.0,33.0,-100.00,East,80,8.0,12.0,87,0.00,,,-99.99,,2013-04-02 21:23:00,
2013-04-02 21:34:00,37.0,31.0,-100.00,East,93,7.0,14.0,79,0.00,,,-99.99,,2013-04-02 21:34:00,
2013-04-02 21:43:00,37.0,31.0,-100.00,East,90,9.0,14.0,78,0.00,,,-99.99,,2013-04-02 21:43:00,
2013-04-02 21:54:00,38.0,31.0,-100.00,East,96,8.0,16.0,76,0.00,,,-99.99,,2013-04-02 21:54:00,
2013-04-02 22:04:00,38.0,29.0,-100.00,East,99,9.0,15.0,71,0.00,,,-99.99,,2013-04-02 22:04:00,
2013-04-02 22:13:00,38.0,30.0,-100.00,ESE,104,10.0,15.0,73,0.00,,,-99.99,,2013-04-02 22:13:00,
2013-04-02 22:24:00,39.0,29.0,-100.00,ESE,104,9.0,13.0,68,0.00,,,-99.99,,2013-04-02 22:24:00,
2013-04-02 22:33:00,39.0,29.0,-100.00,ESE,104,7.0,12.0,68,0.00,,,-99.99,,2013-04-02 22:33:00,
2013-04-02 22:43:00,39.0,28.0,-100.00,ESE,104,9.0,15.0,66,0.00,,,-99.99,,2013-04-02 22:43:00,
2013-04-02 22:53:00,39.0,29.0,-100.00,ESE,104,9.0,15.0,68,0.00,,,-99.99,,2013-04-02 22:53:00,
2013-04-02 23:02:00,38.0,29.0,-100.00,ESE,104,9.0,13.0,70,0.00,,,-99.99,,2013-04-02 23:02:00,
2013-04-02 23:12:00,39.0,29.0,-100.00,ESE,104,9.0,12.0,67,0.00,,,-99.99,,2013-04-02 23:12:00,
2013-04-02 23:23:00,39.0,29.0,-100.00,ESE,104,6.0,10.0,66,0.00,,,-99.99,,2013-04-02 23:23:00,
2013-04-02 23:34:00,39.0,29.0,-100.00,ESE,104,6.0,9.0,67,0.00,,,-99.99,,2013-04-02 23:34:00,
2013-04-02 23:42:00,39.0,29.0,-100.00,ESE,104,6.0,12.0,68,0.00,,,-99.99,,2013-04-02 23:42:00,
2013-04-02 23:52:00,39.0,30.0,-100.00,ESE,104,7.0,11.0,70,0.00,,,-99.99,,2013-04-02 23:52:00,